Weather Roundup
Issued by NWS

Home | Current Version | Previous Version | Graphics & Text | Print | Product List | Glossary Off
Versions: 1 2 3 4 5 6 7 8 9 10 11 12 13 14 15 16 17 18 19 20 21 22 23 24 25 26 27 28 29 30 31 32 33 34 35 36 37 38 39 40 41 42 43 44 45 46 47 48 49 50

662
NZUS93 KARX 212259
HRRWXR

CURRENT HOURLY OBSERVATIONS ACROSS
MUCH OF THE UPPER MISSISSIPPI VALLEY
NATIONAL WEATHER SERVICE LA CROSSE WI
500 PM CST SUN JAN 21 2018


...SOUTHEAST MINNESOTA...


CITY           SKY/WX    TMP DP  RH WIND       PRES   REMARKS
ROCHESTER      CLOUDY    37  31  78 NE10      29.89S WCI  30
ROCHESTER/MAYO CLOUDY    38  30  72 NE6       29.90S WCI  34
WINONA         CLOUDY    36  32  87 CALM      29.91S
AUSTIN         CLOUDY    36  30  80 NE9       29.87F WCI  29
ALBERT LEA     CLOUDY    37  30  75 NE10      29.87S WCI  30
DODGE CENTER   CLOUDY    37  30  75 NE8       29.89S WCI  31
PRESTON        CLOUDY    36  31  81 NE8       29.89S WCI  29
OWATONNA       CLOUDY    37  30  75 N12G22    29.89S WCI  30
FARIBAULT      MOCLDY    37  30  75 N9        29.91R WCI  31
$$

...ELSEWHERE IN MINNESOTA...


CITY           SKY/WX    TMP DP  RH WIND       PRES   REMARKS
MINNEAPOLIS    CLOUDY    37  30  75 N7        29.94F WCI  32
INTNL FALLS    FOG       26  23  88 CALM      30.06R VSB 1
DULUTH         FOG       30  28  92 E7        30.00R VSB 1/2 WCI  23
RED WING       FAIR      39  27  60 CALM      29.92F
REDWOOD FALLS  CLOUDY    37  29  72 N10       29.93S WCI  30
MANKATO        CLOUDY    37  30  75 NE10      29.91R WCI  30
WORTHINGTON    CLOUDY    35  30  82 N18       29.87R WCI  24
FAIRMONT       CLOUDY    38  31  76 NE9       29.88R WCI  31
$$

...SOUTHWEST WISCONSIN...


CITY           SKY/WX    TMP DP  RH WIND       PRES   REMARKS
LA CROSSE      CLOUDY    37  31  78 N3        29.91S HAZE
PRAIRIE DU CHI CLOUDY    33  32  96 CALM      29.88S FOG
BOSCOBEL       LGT RAIN  37  34  89 NE5       29.90R FOG     WCI  33
LONE ROCK      CLOUDY    37  36  96 CALM      29.91R FOG
PLATTEVILLE    MOCLDY    38  38 100 E9        29.86R WCI  31
FORT MC COY    CLOUDY    40  33  76 CALM      29.92R
CAMP DOUGLAS   MOCLDY    41  33  73 NE3       29.91R
MAUSTON-NEW LI CLOUDY    38  33  82 CALM      29.90R
VIROQUA        CLOUDY    38  36  92 NE7       29.88S WCI  32
WIS DELLS      CLOUDY    36  33  88 NE5       29.90S WCI  32
$$

...ELSEWHERE IN WISCONSIN...


CITY           SKY/WX    TMP DP  RH WIND       PRES   REMARKS
MILWAUKEE      FOG       37  36  96 NE5       29.93S VSB 1/2 WCI  33
MADISON        DRZL/FOG  37  36  96 E6        29.91S VSB 1   WCI  32
GREEN BAY      FAIR      36  30  79 NE10      29.96R HAZE    WCI  28
EAU CLAIRE     NOT AVBL
BLACK RVR FLS  MOCLDY    43  30  59 CALM      29.92R
MEDFORD        CLOUDY    37  30  73 NE6       29.93R WCI  33
WAUSAU         CLOUDY    42  29  59 N3        29.91R
WIS RAPIDS     FAIR      40  30  67 NE3       29.93R
MARSHFIELD     MOCLDY    40  30  67 NE8       29.91R WCI  34
RICE LAKE      CLOUDY    38  30  74 N5        29.97R WCI  34
$$

...NORTHEAST IOWA...


CITY           SKY/WX    TMP DP  RH WIND       PRES   REMARKS
WATERLOO       FOG       37  36  96 NE12      29.83S VSB 1   WCI  29
DUBUQUE        CLOUDY    38  36  92 E9        29.84R FOG     WCI  31
DECORAH        CLOUDY    36  36 100 VRB6      29.87R FOG     WCI  31
MASON CITY     CLOUDY    36  33  89 NE13      29.85F FOG     WCI  27
CHARLES CITY   LGT RAIN  36  36 100 NE12      29.86S VSB 3/4 WCI  27
OELWEIN        FOG       37  37 100 NE13      29.84R VSB 1   WCI  29
$$

...ELSEWHERE IN IOWA...


CITY           SKY/WX    TMP DP  RH WIND       PRES   REMARKS
DES MOINES     FOG       41  40  96 NE8       29.76F VSB 1/8
IOWA CITY      CLOUDY    43  40  89 NE10      29.81F FOG
FORT DODGE     MIX PCPN  36  35  96 NE12      29.82R FOG     WCI  28
MARSHALLTOWN   FOG       39  39 100 NE9       29.80R VSB 1/2 WCI  33
CEDAR RAPIDS   FOG       41  40  96 E8        29.81R VSB 1/2
$$

...NORTHERN ILLINOIS...


CITY           SKY/WX    TMP DP  RH WIND       PRES   REMARKS
CHICAGO-OHARE  FOG       43  40  89 E6        29.90R VSB 1/4
CHICAGO-MIDWAY CLOUDY    43  42  97 E5        29.91R FOG
MOLINE         FOG       44  43  96 E8        29.83R VSB 1
ROCKFORD       FOG       39  38  96 E8        29.89F VSB 1/8 WCI  33
PEORIA         CLOUDY    54  51  90 SE5       29.85R FOG
$$

NOTE: "FAIR" INDICATES FEW OR NO CLOUDS BELOW 12,000 FEET WITH NO
SIGNIFICANT WEATHER AND/OR OBSTRUCTIONS TO VISIBILITY. WIND
SPEEDS ARE IN MILES-PER-HOUR.




USA.gov is the U.S. government's official web portal to all federal, state and local government web resources and services.